GPS BIIRM-6 (PRN 07) (32711 NORAD) Tracking and Keplerian Element Data

This shows tracking and keplerian element data for the satellite.

Feedback or suggestion? Click here.




ElementValue
Catalog32711
NameGPS BIIRM-6 (PRN 07)
Epoch Orbit7865
Epoch Day342.81098906
Epoch Year2018
RAAN259.9063
Inclination54.8252
Eccentricity0.0122607
Argument of Perigee218.902
Mean Anonmoly26.3722
Mean Motion2.00568431
Decay Rate-1.2E-07
L11 32711U 08012A 18342.81098906 -.00000012 00000-0 00000+0 0 9997
L22 32711 54.8252 259.9063 0122607 218.9020 26.3722 2.00568431 78653

Live tracking and technical data element details for GPS BIIRM-6 (PRN 07) (NORAD 32711). GPS BIIRM-6 (PRN 07) can be tracked NOW for your location showing map with azimuth and elevation plus other details from your city location.

Track the satellite on the map from your city or location and see movement details for azimuth, elevation, latitude, longitude, range, height, and movement on the map or in text.







IsCatalogInMostPopularTable: catalog: 32711, numindb: 66
Update: records affected: 1



GetName: 32711 GPS BIIRM-6 (PRN 07)

Hit Count: updated at: Thu, 13 Dec 2018 03:26:39 GMT